GW3620 Weather Reports


Display with metric or nautical units.
time (UTC)temp
F
wind
direction
speed
MPH
gust
MPH
rain 1hr
in
rain 24hr
in
rain mn
in
humidity
%
barometer
mb
20260901072031 71 0 0.0 0.0 0.00 0.00 0.00 87 1019.0
20260901071032 71 0 0.0 0.0 0.00 0.00 0.00 87 1019.0
20260901070047 71 69 0.0 1.0 0.00 0.00 0.76 87 1019.0
20260901065032 71 0 0.0 0.0 0.00 0.00 0.76 87 1019.0
20260901064032 72 0 0.0 0.0 0.00 0.00 0.76 86 1019.1
20260901063032 72 0 0.0 0.0 0.00 0.00 0.76 86 1019.3
20260901062049 72 0 0.0 0.0 0.00 0.00 0.76 85 1019.3
20260901061032 72 0 0.0 0.0 0.00 0.00 0.76 85 1019.2
20260901060049 73 0 0.0 0.0 0.00 0.00 0.76 84 1019.3
20260901055030 73 79 0.0 1.0 0.00 0.00 0.76 83 1019.3
20260901054031 73 332 0.0 3.0 0.00 0.00 0.76 82 1019.0
20260901053031 73 0 0.0 0.0 0.00 0.00 0.76 82 1018.8
20260901052032 73 0 0.0 0.0 0.00 0.00 0.76 81 1018.8
20260901051031 73 0 0.0 0.0 0.00 0.00 0.76 80 1018.5
20260901050032 73 28 0.0 1.0 0.00 0.00 0.76 81 1018.7
20260901045030 74 0 0.0 0.0 0.00 0.00 0.76 81 1018.7
20260901044030 74 0 0.0 0.0 0.00 0.00 0.76 80 1018.6
20260901043032 74 0 0.0 0.0 0.00 0.00 0.76 78 1018.6
20260901042032 74 0 0.0 0.0 0.00 0.00 0.76 77 1018.6
20260901041032 75 0 0.0 0.0 0.00 0.00 0.76 74 1017.9
20260901040031 76 0 0.0 0.0 0.00 0.00 0.76 73 1017.8
20260901035032 76 0 0.0 0.0 0.00 0.00 0.76 70 1017.8
20260901034032 76 30 0.0 3.0 0.00 0.00 0.76 68 1017.7
20260901033031 76 70 1.0 4.0 0.00 0.00 0.76 67 1017.7
20260901032049 76 72 2.0 3.0 0.00 0.00 0.76 68 1017.7
20260901031032 76 24 0.0 1.0 0.00 0.00 0.76 71 1018.1
20260901030049 76 36 1.0 4.0 0.00 0.00 0.76 74 1017.5
20260901025032 76 67 0.0 1.0 0.00 0.00 0.76 75 1017.5
20260901024032 76 79 0.0 1.0 0.00 0.00 0.76 76 1017.2
20260901023047 76 0 0.0 0.0 0.00 0.00 0.76 75 1017.0
20260901022031 76 0 0.0 0.0 0.00 0.00 0.76 74 1017.0
20260901021049 76 0 0.0 0.0 0.00 0.00 0.76 73 1017.0
20260901020049 77 0 0.0 0.0 0.00 0.00 0.76 72 1016.9
20260901015032 77 0 0.0 0.0 0.00 0.00 0.76 71 1016.9
20260901014032 77 0 0.0 0.0 0.00 0.00 0.76 70 1016.4
20260901013031 77 0 0.0 0.0 0.00 0.00 0.76 69 1016.4
20260901012030 78 0 0.0 0.0 0.00 0.00 0.76 68 1016.4
20260901011032 78 0 0.0 0.0 0.00 0.00 0.76 67 1016.4
20260901010032 78 0 0.0 0.0 0.00 0.00 0.76 67 1016.4
20260901005032 79 0 0.0 0.0 0.00 0.00 0.76 66 1016.4
20260901004032 79 288 0.0 3.0 0.00 0.00 0.76 65 1016.4
20260901003032 80 283 1.0 7.0 0.00 0.00 0.76 64 1016.5
20260901002032 80 20 1.0 6.0 0.00 0.00 0.76 63 1016.5
20260901001029 81 353 1.0 4.0 0.00 0.00 0.76 62 1016.6
20260901000032 81 6 0.0 3.0 0.00 0.00 0.76 62 1016.5
20260831235032 80 0 0.0 0.0 0.00 0.00 0.76 64 1016.5
20260831234032 80 21 0.0 1.0 0.00 0.00 0.76 65 1016.5
20260831233049 79 0 0.0 0.0 0.00 0.00 0.76 66 1016.7
20260831232032 79 0 0.0 0.0 0.00 0.00 0.76 66 1016.7
20260831231032 79 74 0.0 4.0 0.00 0.00 0.76 69 1015.8
20260831230030 78 352 0.0 3.0 0.00 0.00 0.76 72 1016.0
20260831225032 77 332 0.0 4.0 0.00 0.00 0.76 76 1016.0
20260831224049 77 0 0.0 0.0 0.00 0.00 0.76 78 1016.1
20260831223049 76 0 0.0 0.0 0.00 0.00 0.76 78 1016.5
20260831222030 76 349 0.0 3.0 0.00 0.00 0.76 81 1016.5
20260831221032 75 317 0.0 3.0 0.00 0.00 0.76 82 1016.8
20260831220030 74 333 1.0 3.0 0.00 0.00 0.76 85 1017.5
20260831215032 73 293 0.0 1.0 0.00 0.00 0.76 86 1017.5
20260831214032 72 309 0.0 3.0 0.00 0.00 0.76 89 1018.0
20260831213032 71 337 0.0 1.0 0.00 0.00 0.76 90 1018.5
20260831212049 70 3 0.0 6.0 0.00 0.00 0.76 90 1018.5
20260831211032 70 17 0.0 3.0 0.00 0.00 0.76 91 1019.0
20260831210031 70 10 0.0 3.0 0.00 0.00 0.76 92 1019.4
20260831205104 70 14 0.0 3.0 0.00 0.00 0.76 93 1019.4
20260831204032 70 71 0.0 3.0 0.00 0.00 0.76 93 1019.9
20260831203032 70 0 0.0 0.0 0.00 0.00 0.75 93 1020.7
20260831202032 70 0 0.0 0.0 0.00 0.00 0.75 92 1020.7
20260831201032 70 297 0.0 6.0 0.05 0.00 0.75 92 1020.9
20260831200032 70 80 0.0 3.0 0.09 0.00 0.75 93 1021.4
20260831195032 69 43 0.0 3.0 0.18 0.00 0.73 92 1021.4
20260831194047 69 50 3.0 9.0 0.19 0.00 0.70 92 1021.3
20260831193049 69 51 4.0 7.0 0.17 0.00 0.66 92 1021.6
20260831192032 69 35 4.0 12.0 0.19 0.00 0.64 92 1021.6
20260831191032 69 47 4.0 9.0 0.07 0.00 0.61 92 1021.7
20260831190032 69 47 5.0 7.0 0.05 0.00 0.60 92 1021.8
20260831185032 69 48 5.0 10.0 0.12 0.00 0.59 91 1021.8
20260831184030 69 57 2.0 6.0 0.06 0.00 0.56 91 1022.1
20260831183030 69 47 2.0 7.0 0.04 0.00 0.56 91 1021.8
20260831182049 69 47 2.0 4.0 0.04 0.00 0.55 92 1021.8
20260831181032 68 31 1.0 3.0 0.07 0.00 0.55 91 1021.7
20260831180031 69 355 3.0 6.0 0.12 0.00 0.54 90 1022.1
20260831175030 69 283 0.0 3.0 0.35 0.00 0.51 90 1022.1
20260831174032 70 291 4.0 10.0 0.38 0.00 0.46 88 1021.6
20260831173032 71 280 5.0 12.0 0.40 0.00 0.38 85 1020.9
20260831172030 72 275 3.0 9.0 0.22 0.00 0.33 81 1020.9
20260831171032 73 273 7.0 16.0 0.00 0.00 0.31 77 1020.6
20260831170031 73 279 7.0 12.0 0.00 0.00 0.31 76 1019.9
20260831165032 74 89 7.0 16.0 0.00 0.00 0.31 74 1019.9
20260831164032 75 271 6.0 12.0 0.00 0.00 0.31 72 1019.5
20260831163031 75 284 5.0 15.0 0.00 0.00 0.31 70 1019.3
20260831162030 76 298 3.0 10.0 0.00 0.00 0.31 67 1019.3
20260831161031 75 333 1.0 9.0 0.00 0.00 0.31 69 1018.7
20260831160031 75 72 0.0 6.0 0.00 0.00 0.31 71 1018.3
20260831155049 75 313 0.0 1.0 0.00 0.00 0.31 72 1018.3
20260831154032 74 15 0.0 6.0 0.00 0.00 0.31 74 1018.2
20260831153032 73 42 0.0 3.0 0.00 0.00 0.31 77 1018.3
20260831152049 73 83 0.0 1.0 0.00 0.00 0.31 79 1018.3
20260831151030 72 66 2.0 9.0 0.00 0.00 0.31 81 1018.2
20260831150032 72 87 0.0 1.0 0.00 0.00 0.31 81 1017.6
20260831145031 72 0 0.0 0.0 0.00 0.00 0.31 80 1017.6
20260831144049 72 88 1.0 6.0 0.00 0.00 0.31 80 1017.3
20260831143032 71 50 6.0 13.0 0.00 0.00 0.31 79 1017.4
20260831142049 71 45 5.0 12.0 0.00 0.00 0.31 82 1017.4
20260831141049 70 58 6.0 15.0 0.00 0.00 0.31 86 1017.4
20260831140047 70 52 7.0 13.0 0.00 0.00 0.31 89 1017.5
20260831135031 70 38 7.0 13.0 0.00 0.00 0.31 91 1017.5
20260831134032 70 44 5.0 12.0 0.00 0.00 0.31 92 1018.0
20260831133032 70 55 5.0 13.0 0.00 0.00 0.31 92 1017.9
20260831132032 70 45 7.0 12.0 0.07 0.00 0.31 92 1017.9
20260831131032 70 45 6.0 12.0 0.10 0.00 0.30 92 1017.9
20260831130031 70 51 8.0 13.0 0.55 0.00 0.28 92 1018.6
20260831125030 70 61 4.0 7.0 0.06 0.00 0.25 92 1018.6
20260831124030 70 69 2.0 7.0 0.07 0.00 0.23 92 1017.9
20260831123032 70 298 1.0 7.0 0.27 0.00 0.23 92 1018.5
20260831122032 70 289 5.0 12.0 0.55 0.00 0.09 91 1018.5
20260831121032 71 87 6.0 10.0 0.08 0.00 0.06 90 1017.9
20260831120031 72 81 5.0 12.0 0.11 0.00 0.04 87 1017.2
20260831115032 73 87 9.0 15.0 0.08 0.00 0.03 81 1017.2
20260831114030 76 272 11.0 22.0 0.00 0.00 0.01 71 1016.4
20260831113032 78 85 12.0 19.0 0.00 0.00 0.00 62 1015.5
20260831112032 80 58 6.0 22.0 0.00 0.00 0.00 56 1015.5
20260831111049 81 75 3.0 7.0 0.00 0.00 0.00 52 1014.0
20260831110032 81 270 2.0 6.0 0.00 0.00 0.00 52 1013.3
20260831105032 81 49 2.0 6.0 0.00 0.00 0.00 54 1013.3
20260831104029 81 61 1.0 10.0 0.00 0.00 0.00 55 1013.4
20260831103030 81 66 1.0 4.0 0.00 0.00 0.00 55 1013.4
20260831102032 81 55 1.0 6.0 0.00 0.00 0.00 55 1013.4
20260831101049 81 48 0.0 3.0 0.00 0.00 0.00 56 1013.4
20260831100049 81 63 1.0 4.0 0.00 0.00 0.00 56 1013.2
20260831095032 81 0 0.0 0.0 0.00 0.00 0.00 56 1013.2
20260831094032 81 0 0.0 0.0 0.00 0.00 0.00 55 1013.1
20260831093047 81 0 0.0 0.0 0.00 0.00 0.00 54 1013.2
20260831092049 81 0 0.0 0.0 0.00 0.00 0.00 54 1013.2
20260831091032 81 0 0.0 0.0 0.00 0.00 0.00 54 1013.2
20260831090032 81 0 0.0 0.0 0.00 0.00 0.00 54 1013.2
20260831085049 81 0 0.0 0.0 0.00 0.00 0.00 54 1013.2
20260831084031 81 0 0.0 0.0 0.00 0.00 0.00 55 1013.2
20260831083031 81 0 0.0 0.0 0.00 0.00 0.00 55 1013.4
20260831082047 81 0 0.0 0.0 0.00 0.00 0.00 55 1013.4
20260831081049 82 0 0.0 0.0 0.00 0.00 0.00 55 1013.5
20260831080032 82 0 0.0 0.0 0.00 0.00 0.00 54 1013.5
20260831075032 82 0 0.0 0.0 0.00 0.00 0.00 53 1013.5
20260831074032 83 0 0.0 0.0 0.00 0.00 0.00 52 1013.6
20260831073032 83 0 0.0 0.0 0.00 0.00 0.00 52 1013.5